7 * 24
多渠道服务支持
STARLINK-11417 是 SpaceX Starlink 卫星互联网项目中的一颗低轨卫星,属于“星链”计划的组成部分。该卫星由 SpaceX 发射,旨在为全球用户提供高速互联网服务。它运行在近地轨道,与其他 Starlink 卫星协同工作,提升网络覆盖与连接速度。该项目致力于改善偏远地区网络接入,推动全球数字化发展。
美国
(US)
| 数据来源 | 国际轨道数据 |
| 星历时间: | 2025-11-02T07:42:17+0800 1天前 查看轨道信息 |
| 半长轴: | 6734.525km |
| 偏心率: | 0.000136 |
| 轨道倾角: | 42.999° |
| 近地点辐角 | 280.095° |
| 升交点赤经 | 51.614° |
| 平近点角 | 79.976° |
| 近地点: | 355.474km |
| 远地点: | 357.306km |
| 周期: | 91.668分钟 |
| 每日圈数: | 15.708777 |